| time (UTC) | temp F | wind direction | speed MPH | gust MPH | rain 1hr in | rain 24hr in | rain mn in | humidity % | barometer mb |
| 20260508035853 | 71 | 69 | 0.0 | 0.0 | 0.00 | 0.00 | 0.00 | 29 | 1009.0 |
| 20260508035352 | 71 | 66 | 0.0 | 0.0 | 0.00 | 0.00 | 0.00 | 29 | 1008.8 |
| 20260508034852 | 72 | 66 | 0.0 | 0.0 | 0.00 | 0.00 | 0.00 | 30 | 1008.7 |
| 20260508034610 | 72 | 66 | 0.0 | 0.0 | 0.00 | 0.00 | 0.00 | 27 | 1008.6 |
| 20260508033852 | 73 | 73 | 0.0 | 0.0 | 0.00 | 0.00 | 0.00 | 27 | 1008.5 |
| 20260508033352 | 74 | 125 | 0.0 | 0.0 | 0.00 | 0.00 | 0.00 | 24 | 1008.4 |
| 20260508032851 | 74 | 234 | 0.0 | 0.0 | 0.00 | 0.00 | 0.00 | 25 | 1008.3 |
| 20260508032351 | 74 | 234 | 0.0 | 0.0 | 0.00 | 0.00 | 0.00 | 24 | 1008.2 |
| 20260508031852 | 74 | 234 | 0.0 | 0.0 | 0.00 | 0.00 | 0.00 | 24 | 1008.2 |
| 20260508031613 | 75 | 234 | 0.0 | 0.0 | 0.00 | 0.00 | 0.00 | 24 | 1008.1 |
| 20260508030851 | 76 | 234 | 0.0 | 0.0 | 0.00 | 0.00 | 0.00 | 24 | 1008.1 |
| 20260508030351 | 76 | 234 | 0.0 | 0.0 | 0.00 | 0.00 | 0.00 | 21 | 1007.9 |
| 20260508030114 | 77 | 234 | 0.0 | 4.0 | 0.00 | 0.00 | 0.00 | 21 | 1007.8 |
| 20260508025351 | 77 | 282 | 0.0 | 10.0 | 0.00 | 0.00 | 0.00 | 20 | 1007.7 |
| 20260508025059 | 78 | 269 | 5.0 | 12.0 | 0.00 | 0.00 | 0.00 | 19 | 1007.3 |
| 20260508024944 | 78 | 279 | 4.0 | 10.0 | 0.00 | 0.00 | 0.00 | 20 | 1007.6 |
| 20260508023851 | 79 | 257 | 6.0 | 14.0 | 0.00 | 0.00 | 0.00 | 19 | 1007.3 |
| 20260508023351 | 79 | 265 | 6.0 | 15.0 | 0.00 | 0.00 | 0.00 | 18 | 1007.1 |
| 20260508022850 | 81 | 144 | 6.0 | 15.0 | 0.00 | 0.00 | 0.00 | 16 | 1006.9 |
| 20260508022350 | 81 | 257 | 2.0 | 11.0 | 0.00 | 0.00 | 0.00 | 14 | 1006.8 |
| 20260508021850 | 82 | 224 | 6.0 | 12.0 | 0.00 | 0.00 | 0.00 | 14 | 1006.6 |
| 20260508021349 | 82 | 282 | 8.0 | 12.0 | 0.00 | 0.00 | 0.00 | 13 | 1006.5 |
| 20260508021334 | 82 | 255 | 6.0 | 15.0 | 0.00 | 0.00 | 0.00 | 13 | 1006.3 |
| 20260508020349 | 82 | 312 | 7.0 | 15.0 | 0.00 | 0.00 | 0.00 | 13 | 1006.2 |
| 20260508020110 | 83 | 298 | 6.0 | 13.0 | 0.00 | 0.00 | 0.00 | 13 | 1006.1 |
| 20260508015349 | 83 | 299 | 5.0 | 15.0 | 0.00 | 0.00 | 0.00 | 13 | 1005.9 |
| 20260508014850 | 84 | 316 | 9.0 | 15.0 | 0.00 | 0.00 | 0.00 | 13 | 1006.0 |
| 20260508014349 | 84 | 283 | 8.0 | 16.0 | 0.00 | 0.00 | 0.00 | 13 | 1005.9 |
| 20260508013849 | 84 | 286 | 5.0 | 16.0 | 0.00 | 0.00 | 0.00 | 13 | 1005.8 |
| 20260508013349 | 85 | 350 | 8.0 | 15.0 | 0.00 | 0.00 | 0.00 | 13 | 1005.7 |
| 20260508012849 | 85 | 279 | 5.0 | 17.0 | 0.00 | 0.00 | 0.00 | 13 | 1005.8 |
| 20260508012348 | 85 | 276 | 7.0 | 17.0 | 0.00 | 0.00 | 0.00 | 13 | 1005.8 |
| 20260508011849 | 85 | 302 | 6.0 | 15.0 | 0.00 | 0.00 | 0.00 | 13 | 1005.8 |
| 20260508011349 | 85 | 257 | 5.0 | 18.0 | 0.00 | 0.00 | 0.00 | 13 | 1005.6 |
| 20260508010848 | 86 | 293 | 10.0 | 18.0 | 0.00 | 0.00 | 0.00 | 13 | 1005.5 |
| 20260508010348 | 87 | 275 | 6.0 | 12.0 | 0.00 | 0.00 | 0.00 | 13 | 1005.6 |
| 20260508005849 | 87 | 307 | 0.0 | 4.0 | 0.00 | 0.00 | 0.00 | 13 | 1005.5 |
| 20260508005348 | 87 | 298 | 2.0 | 6.0 | 0.00 | 0.00 | 0.00 | 12 | 1005.5 |
| 20260508004848 | 87 | 214 | 3.0 | 6.0 | 0.00 | 0.00 | 0.00 | 13 | 1005.3 |
| 20260508004347 | 87 | 281 | 1.0 | 4.0 | 0.00 | 0.00 | 0.00 | 12 | 1005.5 |
| 20260508003847 | 86 | 52 | 0.0 | 4.0 | 0.00 | 0.00 | 0.00 | 12 | 1005.3 |
| 20260508003347 | 86 | 72 | 1.0 | 6.0 | 0.00 | 0.00 | 0.00 | 12 | 1005.3 |
| 20260508002847 | 86 | 65 | 2.0 | 6.0 | 0.00 | 0.00 | 0.00 | 12 | 1005.3 |
| 20260508002347 | 87 | 309 | 1.0 | 5.0 | 0.00 | 0.00 | 0.00 | 12 | 1005.2 |
| 20260508001847 | 86 | 6 | 1.0 | 5.0 | 0.00 | 0.00 | 0.00 | 13 | 1005.3 |
| 20260508001347 | 87 | 69 | 2.0 | 9.0 | 0.00 | 0.00 | 0.00 | 12 | 1005.2 |
| 20260508000847 | 86 | 326 | 3.0 | 18.0 | 0.00 | 0.00 | 0.00 | 14 | 1005.2 |
| 20260508000615 | 86 | 285 | 2.0 | 18.0 | 0.00 | 0.00 | 0.00 | 13 | 1005.2 |
| 20260507235846 | 86 | 51 | 9.0 | 16.0 | 0.00 | 0.00 | 0.00 | 13 | 1005.2 |
| 20260507235347 | 86 | 14 | 4.0 | 7.0 | 0.00 | 0.00 | 0.00 | 13 | 1005.3 |
| 20260507235110 | 86 | 299 | 3.0 | 10.0 | 0.00 | 0.00 | 0.00 | 14 | 1005.5 |
| 20260507234349 | 85 | 341 | 3.0 | 10.0 | 0.00 | 0.00 | 0.00 | 13 | 1005.3 |
| 20260507233846 | 85 | 34 | 5.0 | 7.0 | 0.00 | 0.00 | 0.00 | 14 | 1005.3 |
| 20260507233610 | 85 | 355 | 3.0 | 9.0 | 0.00 | 0.00 | 0.00 | 13 | 1005.3 |
| 20260507232846 | 86 | 358 | 5.0 | 10.0 | 0.00 | 0.00 | 0.00 | 13 | 1005.3 |
| 20260507232346 | 87 | 303 | 3.0 | 10.0 | 0.00 | 0.00 | 0.00 | 13 | 1005.3 |
| 20260507231846 | 87 | 197 | 4.0 | 9.0 | 0.00 | 0.00 | 0.00 | 13 | 1005.3 |
| 20260507231605 | 87 | 241 | 3.0 | 6.0 | 0.00 | 0.00 | 0.00 | 13 | 1005.5 |
| 20260507230845 | 87 | 234 | 3.0 | 7.0 | 0.00 | 0.00 | 0.00 | 13 | 1005.3 |
| 20260507230832 | 87 | 353 | 4.0 | 10.0 | 0.00 | 0.00 | 0.00 | 13 | 1005.3 |
| 20260507225845 | 87 | 11 | 5.0 | 13.0 | 0.00 | 0.00 | 0.00 | 13 | 1005.3 |
| 20260507225345 | 89 | 235 | 7.0 | 13.0 | 0.00 | 0.00 | 0.00 | 12 | 1005.3 |
| 20260507224845 | 90 | 216 | 4.0 | 11.0 | 0.00 | 0.00 | 0.00 | 11 | 1005.3 |
| 20260507224346 | 90 | 185 | 4.0 | 9.0 | 0.00 | 0.00 | 0.00 | 11 | 1005.3 |
| 20260507223845 | 90 | 165 | 3.0 | 11.0 | 0.00 | 0.00 | 0.00 | 11 | 1005.5 |
| 20260507223345 | 90 | 175 | 3.0 | 14.0 | 0.00 | 0.00 | 0.00 | 12 | 1005.3 |
| 20260507222845 | 89 | 186 | 9.0 | 14.0 | 0.00 | 0.00 | 0.00 | 12 | 1005.5 |
| 20260507222344 | 88 | 171 | 4.0 | 14.0 | 0.00 | 0.00 | 0.00 | 12 | 1005.6 |
| 20260507221844 | 90 | 288 | 6.0 | 14.0 | 0.00 | 0.00 | 0.00 | 12 | 1005.7 |
| 20260507221345 | 90 | 226 | 4.0 | 10.0 | 0.00 | 0.00 | 0.00 | 12 | 1005.6 |
| 20260507220845 | 89 | 247 | 3.0 | 6.0 | 0.00 | 0.00 | 0.00 | 12 | 1005.7 |
| 20260507220344 | 89 | 224 | 3.0 | 15.0 | 0.00 | 0.00 | 0.00 | 11 | 1005.8 |
| 20260507215844 | 88 | 234 | 4.0 | 15.0 | 0.00 | 0.00 | 0.00 | 12 | 1005.9 |
| 20260507215344 | 88 | 219 | 3.0 | 10.0 | 0.00 | 0.00 | 0.00 | 12 | 1005.9 |
| 20260507214843 | 87 | 265 | 5.0 | 10.0 | 0.00 | 0.00 | 0.00 | 12 | 1006.1 |
| 20260507214613 | 87 | 69 | 0.0 | 7.0 | 0.00 | 0.00 | 0.00 | 11 | 1006.0 |
| 20260507213844 | 89 | 73 | 4.0 | 7.0 | 0.00 | 0.00 | 0.00 | 11 | 1006.2 |
| 20260507213344 | 90 | 197 | 3.0 | 7.0 | 0.00 | 0.00 | 0.00 | 11 | 1006.3 |
| 20260507212844 | 90 | 234 | 3.0 | 9.0 | 0.00 | 0.00 | 0.00 | 12 | 1006.5 |
| 20260507212343 | 89 | 254 | 3.0 | 9.0 | 0.00 | 0.00 | 0.00 | 12 | 1006.4 |
| 20260507211843 | 88 | 220 | 3.0 | 7.0 | 0.00 | 0.00 | 0.00 | 12 | 1006.5 |
| 20260507211604 | 88 | 303 | 3.0 | 6.0 | 0.00 | 0.00 | 0.00 | 13 | 1006.6 |
| 20260507211103 | 87 | 152 | 1.0 | 6.0 | 0.00 | 0.00 | 0.00 | 13 | 1006.6 |
| 20260507210343 | 86 | 133 | 3.0 | 6.0 | 0.00 | 0.00 | 0.00 | 13 | 1006.8 |
| 20260507205843 | 86 | 244 | 3.0 | 7.0 | 0.00 | 0.00 | 0.00 | 12 | 1006.9 |
| 20260507205343 | 86 | 255 | 2.0 | 10.0 | 0.00 | 0.00 | 0.00 | 13 | 1006.9 |
| 20260507204842 | 86 | 319 | 4.0 | 10.0 | 0.00 | 0.00 | 0.00 | 13 | 1006.9 |
| 20260507204342 | 87 | 312 | 0.0 | 7.0 | 0.00 | 0.00 | 0.00 | 12 | 1007.0 |
| 20260507203842 | 87 | 89 | 2.0 | 10.0 | 0.00 | 0.00 | 0.00 | 11 | 1006.9 |
| 20260507203342 | 88 | 171 | 3.0 | 10.0 | 0.00 | 0.00 | 0.00 | 11 | 1007.0 |
| 20260507203108 | 87 | 243 | 5.0 | 10.0 | 0.00 | 0.00 | 0.00 | 12 | 1007.0 |
| 20260507202342 | 88 | 241 | 5.0 | 10.0 | 0.00 | 0.00 | 0.00 | 11 | 1007.1 |
| 20260507201841 | 88 | 245 | 3.0 | 7.0 | 0.00 | 0.00 | 0.00 | 11 | 1007.2 |
| 20260507201342 | 87 | 168 | 0.0 | 6.0 | 0.00 | 0.00 | 0.00 | 12 | 1007.3 |
| 20260507200841 | 88 | 123 | 2.0 | 14.0 | 0.00 | 0.00 | 0.00 | 11 | 1007.2 |
| 20260507200341 | 88 | 147 | 7.0 | 14.0 | 0.00 | 0.00 | 0.00 | 11 | 1007.3 |
| 20260507195840 | 88 | 130 | 1.0 | 12.0 | 0.00 | 0.00 | 0.00 | 11 | 1007.2 |
| 20260507195341 | 88 | 130 | 6.0 | 12.0 | 0.00 | 0.00 | 0.00 | 11 | 1007.5 |
| 20260507195057 | 88 | 183 | 3.0 | 7.0 | 0.00 | 0.00 | 0.00 | 12 | 1007.5 |
| 20260507194558 | 88 | 62 | 1.0 | 6.0 | 0.00 | 0.00 | 0.00 | 11 | 1007.4 |
| 20260507193840 | 87 | 16 | 2.0 | 7.0 | 0.00 | 0.00 | 0.00 | 11 | 1007.5 |
| 20260507193341 | 87 | 223 | 4.0 | 7.0 | 0.00 | 0.00 | 0.00 | 12 | 1007.6 |
| 20260507192841 | 86 | 224 | 2.0 | 9.0 | 0.00 | 0.00 | 0.00 | 12 | 1007.7 |
| 20260507192341 | 87 | 182 | 4.0 | 9.0 | 0.00 | 0.00 | 0.00 | 12 | 1007.7 |
| 20260507191840 | 85 | 117 | 4.0 | 9.0 | 0.00 | 0.00 | 0.00 | 12 | 1007.7 |
| 20260507191340 | 86 | 79 | 4.0 | 9.0 | 0.00 | 0.00 | 0.00 | 12 | 1007.9 |
| 20260507190840 | 87 | 90 | 1.0 | 4.0 | 0.00 | 0.00 | 0.00 | 12 | 1007.8 |
| 20260507190340 | 87 | 128 | 2.0 | 6.0 | 0.00 | 0.00 | 0.00 | 11 | 1007.9 |
| 20260507185839 | 88 | 93 | 3.0 | 6.0 | 0.00 | 0.00 | 0.00 | 12 | 1007.9 |
| 20260507185339 | 87 | 127 | 3.0 | 6.0 | 0.00 | 0.00 | 0.00 | 12 | 1007.9 |
| 20260507184839 | 86 | 158 | 2.0 | 6.0 | 0.00 | 0.00 | 0.00 | 13 | 1008.1 |
| 20260507184339 | 86 | 289 | 3.0 | 6.0 | 0.00 | 0.00 | 0.00 | 14 | 1008.2 |
| 20260507183840 | 86 | 344 | 1.0 | 4.0 | 0.00 | 0.00 | 0.00 | 15 | 1008.3 |
| 20260507183339 | 86 | 147 | 0.0 | 3.0 | 0.00 | 0.00 | 0.00 | 14 | 1008.4 |
| 20260507182839 | 86 | 217 | 1.0 | 7.0 | 0.00 | 0.00 | 0.00 | 14 | 1008.4 |
| 20260507182338 | 85 | 271 | 2.0 | 7.0 | 0.00 | 0.00 | 0.00 | 15 | 1008.4 |
| 20260507181839 | 84 | 180 | 1.0 | 9.0 | 0.00 | 0.00 | 0.00 | 16 | 1008.6 |
| 20260507181339 | 84 | 309 | 4.0 | 9.0 | 0.00 | 0.00 | 0.00 | 16 | 1008.7 |
| 20260507181320 | 85 | 272 | 1.0 | 5.0 | 0.00 | 0.00 | 0.00 | 16 | 1008.8 |
| 20260507180339 | 84 | 190 | 2.0 | 5.0 | 0.00 | 0.00 | 0.00 | 16 | 1008.9 |
| 20260507175838 | 83 | 206 | 2.0 | 5.0 | 0.00 | 0.00 | 0.00 | 16 | 1008.9 |
| 20260507175338 | 83 | 182 | 1.0 | 5.0 | 0.00 | 0.00 | 0.00 | 17 | 1009.0 |
| 20260507174838 | 82 | 185 | 2.0 | 5.0 | 0.00 | 0.00 | 0.00 | 18 | 1009.0 |
| 20260507174338 | 81 | 355 | 1.0 | 6.0 | 0.00 | 0.00 | 0.00 | 19 | 1009.2 |
| 20260507173838 | 81 | 39 | 3.0 | 6.0 | 0.00 | 0.00 | 0.00 | 19 | 1009.2 |
| 20260507173338 | 81 | 234 | 2.0 | 5.0 | 0.00 | 0.00 | 0.00 | 20 | 1009.4 |
| 20260507173054 | 80 | 192 | 2.0 | 5.0 | 0.00 | 0.00 | 0.00 | 20 | 1009.5 |
| 20260507172338 | 80 | 285 | 2.0 | 5.0 | 0.00 | 0.00 | 0.00 | 21 | 1009.5 |
| 20260507171838 | 79 | 241 | 3.0 | 5.0 | 0.00 | 0.00 | 0.00 | 20 | 1009.5 |
| 20260507171336 | 79 | 319 | 2.0 | 5.0 | 0.00 | 0.00 | 0.00 | 21 | 1009.5 |
| 20260507170837 | 78 | 257 | 0.0 | 5.0 | 0.00 | 0.00 | 0.00 | 21 | 1009.5 |
| 20260507170337 | 79 | 248 | 3.0 | 5.0 | 0.00 | 0.00 | 0.00 | 20 | 1009.5 |
| 20260507165837 | 79 | 262 | 1.0 | 4.0 | 0.00 | 0.00 | 0.00 | 22 | 1009.6 |
| 20260507165337 | 79 | 241 | 2.0 | 4.0 | 0.00 | 0.00 | 0.00 | 22 | 1009.6 |
| 20260507165055 | 78 | 216 | 1.0 | 4.0 | 0.00 | 0.00 | 0.00 | 22 | 1009.6 |
| 20260507164336 | 77 | 248 | 1.0 | 4.0 | 0.00 | 0.00 | 0.00 | 23 | 1009.7 |
| 20260507163836 | 77 | 226 | 2.0 | 4.0 | 0.00 | 0.00 | 0.00 | 23 | 1009.7 |
| 20260507163553 | 77 | 274 | 1.0 | 7.0 | 0.00 | 0.00 | 0.00 | 23 | 1009.8 |
| 20260507162836 | 77 | 182 | 0.0 | 7.0 | 0.00 | 0.00 | 0.00 | 24 | 1009.7 |
| 20260507162336 | 76 | 164 | 2.0 | 4.0 | 0.00 | 0.00 | 0.00 | 23 | 1009.7 |
| 20260507161837 | 76 | 296 | 2.0 | 4.0 | 0.00 | 0.00 | 0.00 | 23 | 1009.7 |
| 20260507161336 | 76 | 241 | 1.0 | 4.0 | 0.00 | 0.00 | 0.00 | 24 | 1009.9 |
| 20260507160836 | 76 | 165 | 2.0 | 3.0 | 0.00 | 0.00 | 0.00 | 23 | 1009.9 |
| 20260507160335 | 75 | 265 | 0.0 | 3.0 | 0.00 | 0.00 | 0.00 | 23 | 1009.9 |
| 20260507155836 | 75 | 219 | 0.0 | 2.0 | 0.00 | 0.00 | 0.00 | 23 | 1009.9 |
| 20260507155336 | 74 | 219 | 0.0 | 3.0 | 0.00 | 0.00 | 0.00 | 23 | 1010.0 |
| 20260507154835 | 73 | 305 | 0.0 | 3.0 | 0.00 | 0.00 | 0.00 | 24 | 1009.9 |
| 20260507154335 | 73 | 227 | 0.0 | 2.0 | 0.00 | 0.00 | 0.00 | 24 | 1010.1 |
| 20260507153835 | 72 | 240 | 0.0 | 2.0 | 0.00 | 0.00 | 0.00 | 25 | 1010.1 |
| 20260507153334 | 72 | 303 | 0.0 | 3.0 | 0.00 | 0.00 | 0.00 | 27 | 1010.1 |
| 20260507153056 | 71 | 348 | 1.0 | 3.0 | 0.00 | 0.00 | 0.00 | 28 | 1010.1 |
| 20260507152335 | 71 | 243 | 0.0 | 2.0 | 0.00 | 0.00 | 0.00 | 29 | 1010.1 |
| 20260507151834 | 70 | 271 | 0.0 | 2.0 | 0.00 | 0.00 | 0.00 | 30 | 1010.1 |
| 20260507151555 | 71 | 299 | 0.0 | 2.0 | 0.00 | 0.00 | 0.00 | 31 | 1010.1 |
| 20260507150834 | 71 | 300 | 0.0 | 2.0 | 0.00 | 0.00 | 0.00 | 31 | 1010.2 |
| 20260507150334 | 72 | 151 | 0.0 | 0.0 | 0.00 | 0.00 | 0.00 | 30 | 1010.2 |
| 20260507145835 | 71 | 151 | 0.0 | 0.0 | 0.00 | 0.00 | 0.00 | 31 | 1010.2 |
| 20260507145334 | 70 | 151 | 0.0 | 0.0 | 0.00 | 0.00 | 0.00 | 33 | 1010.2 |
| 20260507144833 | 69 | 151 | 0.0 | 2.0 | 0.00 | 0.00 | 0.00 | 34 | 1010.3 |
| 20260507144334 | 69 | 151 | 1.0 | 2.0 | 0.00 | 0.00 | 0.00 | 34 | 1010.3 |
| 20260507144100 | 69 | 144 | 1.0 | 2.0 | 0.00 | 0.00 | 0.00 | 35 | 1010.3 |
| 20260507143551 | 69 | 151 | 0.0 | 0.0 | 0.00 | 0.00 | 0.00 | 33 | 1010.2 |
| 20260507142833 | 69 | 151 | 0.0 | 1.0 | 0.00 | 0.00 | 0.00 | 35 | 1010.3 |
| 20260507142333 | 69 | 161 | 0.0 | 1.0 | 0.00 | 0.00 | 0.00 | 34 | 1010.2 |
| 20260507141833 | 69 | 172 | 0.0 | 1.0 | 0.00 | 0.00 | 0.00 | 33 | 1010.2 |
| 20260507141333 | 69 | 89 | 0.0 | 0.0 | 0.00 | 0.00 | 0.00 | 35 | 1010.3 |
| 20260507140834 | 68 | 89 | 0.0 | 0.0 | 0.00 | 0.00 | 0.00 | 34 | 1010.2 |
| 20260507140333 | 66 | 89 | 0.0 | 0.0 | 0.00 | 0.00 | 0.00 | 42 | 1010.2 |
| 20260507140051 | 64 | 89 | 0.0 | 0.0 | 0.00 | 0.00 | 0.00 | 48 | 1010.2 |
| 20260507135333 | 62 | 89 | 0.0 | 0.0 | 0.00 | 0.00 | 0.00 | 53 | 1010.2 |
| 20260507135053 | 62 | 89 | 0.0 | 0.0 | 0.00 | 0.00 | 0.00 | 51 | 1010.3 |
| 20260507134333 | 61 | 89 | 0.0 | 0.0 | 0.00 | 0.00 | 0.00 | 42 | 1010.1 |
| 20260507133832 | 59 | 89 | 0.0 | 0.0 | 0.00 | 0.00 | 0.00 | 52 | 1010.1 |
| 20260507133332 | 58 | 89 | 0.0 | 0.0 | 0.00 | 0.00 | 0.00 | 54 | 1010.1 |
| 20260507132832 | 58 | 89 | 0.0 | 0.0 | 0.00 | 0.00 | 0.00 | 52 | 1010.1 |
| 20260507132332 | 57 | 89 | 0.0 | 0.0 | 0.00 | 0.00 | 0.00 | 53 | 1010.1 |
| 20260507131831 | 56 | 89 | 0.0 | 0.0 | 0.00 | 0.00 | 0.00 | 53 | 1010.1 |
| 20260507131814 | 55 | 93 | 0.0 | 0.0 | 0.00 | 0.00 | 0.00 | 58 | 1010.0 |
| 20260507130831 | 54 | 347 | 0.0 | 0.0 | 0.00 | 0.00 | 0.00 | 59 | 1010.0 |
| 20260507130331 | 54 | 347 | 0.0 | 0.0 | 0.00 | 0.00 | 0.00 | 58 | 1009.9 |
| 20260507125831 | 55 | 347 | 0.0 | 0.0 | 0.00 | 0.00 | 0.00 | 57 | 1009.9 |
| 20260507125331 | 54 | 347 | 0.0 | 0.0 | 0.00 | 0.00 | 0.00 | 54 | 1009.9 |
| 20260507125047 | 55 | 347 | 0.0 | 0.0 | 0.00 | 0.00 | 0.00 | 52 | 1009.8 |
| 20260507124331 | 55 | 347 | 0.0 | 0.0 | 0.00 | 0.00 | 0.00 | 50 | 1009.8 |
| 20260507124049 | 55 | 347 | 0.0 | 0.0 | 0.00 | 0.00 | 0.00 | 50 | 1009.9 |
| 20260507123549 | 56 | 347 | 0.0 | 0.0 | 0.00 | 0.00 | 0.00 | 47 | 1009.8 |
| 20260507122831 | 56 | 347 | 0.0 | 0.0 | 0.00 | 0.00 | 0.00 | 46 | 1009.7 |
| 20260507122551 | 56 | 347 | 0.0 | 0.0 | 0.00 | 0.00 | 0.00 | 46 | 1009.7 |
| 20260507121835 | 56 | 347 | 0.0 | 0.0 | 0.00 | 0.00 | 0.00 | 47 | 1009.8 |
| 20260507121330 | 57 | 347 | 0.0 | 0.0 | 0.00 | 0.00 | 0.00 | 45 | 1009.7 |
| 20260507120830 | 57 | 347 | 0.0 | 1.0 | 0.00 | 0.00 | 0.00 | 45 | 1009.8 |
| 20260507120330 | 57 | 0 | 0.0 | 1.0 | 0.00 | 0.00 | 0.00 | 46 | 1009.8 |
| 20260507115829 | 56 | 343 | 0.0 | 2.0 | 0.00 | 0.00 | 0.00 | 47 | 1009.9 |
| 20260507115330 | 56 | 350 | 0.0 | 2.0 | 0.00 | 0.00 | 0.00 | 49 | 1009.9 |
| 20260507114830 | 56 | 353 | 1.0 | 2.0 | 0.00 | 0.00 | 0.00 | 49 | 1009.9 |
| 20260507114330 | 56 | 351 | 0.0 | 1.0 | 0.00 | 0.00 | 0.00 | 49 | 1009.9 |
| 20260507113829 | 55 | 0 | 0.0 | 1.0 | 0.00 | 0.00 | 0.00 | 51 | 1009.9 |
| 20260507113330 | 55 | 358 | 0.0 | 0.0 | 0.00 | 0.00 | 0.00 | 52 | 1009.9 |
| 20260507112830 | 54 | 357 | 0.0 | 0.0 | 0.00 | 0.00 | 0.00 | 52 | 1009.8 |
| 20260507112329 | 54 | 357 | 0.0 | 0.0 | 0.00 | 0.00 | 0.00 | 52 | 1009.9 |
| 20260507111829 | 54 | 1 | 0.0 | 0.0 | 0.00 | 0.00 | 0.00 | 53 | 1009.9 |
| 20260507111329 | 55 | 1 | 0.0 | 0.0 | 0.00 | 0.00 | 0.00 | 52 | 1009.9 |
| 20260507110829 | 55 | 125 | 0.0 | 0.0 | 0.00 | 0.00 | 0.00 | 52 | 1009.9 |
| 20260507110329 | 56 | 125 | 0.0 | 0.0 | 0.00 | 0.00 | 0.00 | 49 | 1009.9 |
| 20260507105829 | 57 | 125 | 0.0 | 0.0 | 0.00 | 0.00 | 0.00 | 48 | 1009.9 |
| 20260507105329 | 57 | 125 | 0.0 | 0.0 | 0.00 | 0.00 | 0.00 | 46 | 1009.9 |
| 20260507104828 | 57 | 127 | 0.0 | 0.0 | 0.00 | 0.00 | 0.00 | 47 | 1009.8 |
| 20260507104328 | 56 | 127 | 0.0 | 0.0 | 0.00 | 0.00 | 0.00 | 46 | 1009.7 |
| 20260507104053 | 56 | 18 | 0.0 | 0.0 | 0.00 | 0.00 | 0.00 | 50 | 1009.8 |
| 20260507103557 | 56 | 18 | 0.0 | 0.0 | 0.00 | 0.00 | 0.00 | 53 | 1009.6 |
| 20260507102827 | 56 | 18 | 0.0 | 0.0 | 0.00 | 0.00 | 0.00 | 53 | 1009.6 |
| 20260507102328 | 56 | 18 | 0.0 | 0.0 | 0.00 | 0.00 | 0.00 | 48 | 1009.6 |
| 20260507101828 | 56 | 18 | 0.0 | 0.0 | 0.00 | 0.00 | 0.00 | 49 | 1009.6 |
| 20260507101327 | 56 | 18 | 0.0 | 0.0 | 0.00 | 0.00 | 0.00 | 51 | 1009.6 |
| 20260507101051 | 55 | 18 | 0.0 | 0.0 | 0.00 | 0.00 | 0.00 | 53 | 1009.6 |
| 20260507100328 | 56 | 18 | 0.0 | 0.0 | 0.00 | 0.00 | 0.00 | 52 | 1009.7 |
| 20260507095827 | 56 | 18 | 0.0 | 0.0 | 0.00 | 0.00 | 0.00 | 51 | 1009.7 |
| 20260507095327 | 57 | 18 | 0.0 | 0.0 | 0.00 | 0.00 | 0.00 | 50 | 1009.7 |
| 20260507094827 | 57 | 20 | 0.0 | 0.0 | 0.00 | 0.00 | 0.00 | 48 | 1009.8 |
| 20260507094327 | 58 | 20 | 0.0 | 0.0 | 0.00 | 0.00 | 0.00 | 46 | 1009.8 |
| 20260507094056 | 57 | 20 | 0.0 | 0.0 | 0.00 | 0.00 | 0.00 | 47 | 1009.9 |
| 20260507093327 | 58 | 20 | 0.0 | 0.0 | 0.00 | 0.00 | 0.00 | 47 | 1009.9 |
| 20260507092827 | 59 | 21 | 0.0 | 0.0 | 0.00 | 0.00 | 0.00 | 45 | 1010.0 |
| 20260507092550 | 59 | 25 | 0.0 | 1.0 | 0.00 | 0.00 | 0.00 | 43 | 1010.0 |
| 20260507091826 | 59 | 41 | 0.0 | 1.0 | 0.00 | 0.00 | 0.00 | 43 | 1010.1 |
| 20260507091326 | 60 | 55 | 0.0 | 0.0 | 0.00 | 0.00 | 0.00 | 43 | 1010.1 |
| 20260507090826 | 60 | 62 | 0.0 | 0.0 | 0.00 | 0.00 | 0.00 | 42 | 1010.2 |
| 20260507090325 | 59 | 62 | 0.0 | 0.0 | 0.00 | 0.00 | 0.00 | 42 | 1010.2 |
| 20260507090049 | 60 | 62 | 0.0 | 0.0 | 0.00 | 0.00 | 0.00 | 43 | 1010.2 |
| 20260507085326 | 60 | 62 | 0.0 | 0.0 | 0.00 | 0.00 | 0.00 | 42 | 1010.2 |
| 20260507084825 | 60 | 48 | 0.0 | 2.0 | 0.00 | 0.00 | 0.00 | 41 | 1010.2 |
| 20260507084325 | 60 | 55 | 0.0 | 3.0 | 0.00 | 0.00 | 0.00 | 41 | 1010.2 |
| 20260507083825 | 60 | 44 | 0.0 | 3.0 | 0.00 | 0.00 | 0.00 | 42 | 1010.2 |
| 20260507083549 | 60 | 27 | 0.0 | 1.0 | 0.00 | 0.00 | 0.00 | 42 | 1010.1 |
| 20260507082826 | 60 | 68 | 0.0 | 2.0 | 0.00 | 0.00 | 0.00 | 44 | 1010.2 |
| 20260507082759 | 60 | 68 | 0.0 | 2.0 | 0.00 | 0.00 | 0.00 | 43 | 1010.3 |
| 20260507081825 | 60 | 45 | 0.0 | 1.0 | 0.00 | 0.00 | 0.00 | 44 | 1010.3 |
| 20260507081324 | 60 | 41 | 0.0 | 1.0 | 0.00 | 0.00 | 0.00 | 44 | 1010.3 |
| 20260507080824 | 60 | 38 | 0.0 | 0.0 | 0.00 | 0.00 | 0.00 | 43 | 1010.2 |
| 20260507080805 | 59 | 38 | 0.0 | 0.0 | 0.00 | 0.00 | 0.00 | 45 | 1010.3 |
| 20260507080048 | 59 | 39 | 0.0 | 0.0 | 0.00 | 0.00 | 0.00 | 46 | 1010.2 |
| 20260507075324 | 58 | 38 | 0.0 | 0.0 | 0.00 | 0.00 | 0.00 | 49 | 1010.2 |
| 20260507074825 | 58 | 38 | 0.0 | 0.0 | 0.00 | 0.00 | 0.00 | 47 | 1010.2 |
| 20260507074324 | 58 | 38 | 0.0 | 0.0 | 0.00 | 0.00 | 0.00 | 49 | 1010.2 |
| 20260507073824 | 58 | 55 | 0.0 | 0.0 | 0.00 | 0.00 | 0.00 | 49 | 1010.1 |
| 20260507073324 | 59 | 55 | 0.0 | 0.0 | 0.00 | 0.00 | 0.00 | 48 | 1010.2 |
| 20260507072823 | 59 | 54 | 0.0 | 0.0 | 0.00 | 0.00 | 0.00 | 49 | 1010.1 |
| 20260507072545 | 59 | 54 | 0.0 | 0.0 | 0.00 | 0.00 | 0.00 | 48 | 1010.1 |
| 20260507071823 | 59 | 54 | 0.0 | 0.0 | 0.00 | 0.00 | 0.00 | 48 | 1010.0 |
| 20260507071323 | 59 | 54 | 0.0 | 0.0 | 0.00 | 0.00 | 0.00 | 47 | 1010.1 |
| 20260507070823 | 60 | 54 | 0.0 | 0.0 | 0.00 | 0.00 | 0.00 | 48 | 1010.2 |
| 20260507070323 | 59 | 54 | 0.0 | 0.0 | 0.00 | 0.00 | 0.00 | 45 | 1010.1 |
| 20260507065823 | 59 | 89 | 0.0 | 0.0 | 0.00 | 0.00 | 0.00 | 47 | 1010.1 |
| 20260507065323 | 59 | 117 | 0.0 | 0.0 | 0.00 | 0.00 | 0.00 | 48 | 1010.2 |
| 20260507064823 | 59 | 117 | 0.0 | 0.0 | 0.00 | 0.00 | 0.00 | 48 | 1010.3 |
| 20260507064323 | 59 | 117 | 0.0 | 0.0 | 0.00 | 0.00 | 0.00 | 48 | 1010.3 |
| 20260507063822 | 59 | 117 | 0.0 | 0.0 | 0.00 | 0.00 | 0.00 | 47 | 1010.2 |
| 20260507063323 | 60 | 117 | 0.0 | 0.0 | 0.00 | 0.00 | 0.00 | 46 | 1010.2 |
| 20260507063042 | 60 | 117 | 0.0 | 0.0 | 0.00 | 0.00 | 0.00 | 44 | 1010.2 |
| 20260507062323 | 60 | 118 | 0.0 | 0.0 | 0.00 | 0.00 | 0.00 | 45 | 1010.2 |
| 20260507061822 | 60 | 30 | 0.0 | 0.0 | 0.00 | 0.00 | 0.00 | 45 | 1010.1 |
| 20260507061323 | 61 | 30 | 0.0 | 0.0 | 0.00 | 0.00 | 0.00 | 43 | 1010.0 |
| 20260507060822 | 61 | 30 | 0.0 | 0.0 | 0.00 | 0.00 | 0.00 | 43 | 1010.0 |
| 20260507060322 | 61 | 30 | 0.0 | 0.0 | 0.00 | 0.00 | 0.00 | 43 | 1009.9 |
| 20260507055822 | 60 | 30 | 0.0 | 0.0 | 0.00 | 0.00 | 0.00 | 44 | 1010.0 |
| 20260507055322 | 60 | 30 | 0.0 | 0.0 | 0.00 | 0.00 | 0.00 | 44 | 1010.0 |
| 20260507054821 | 60 | 30 | 0.0 | 0.0 | 0.00 | 0.00 | 0.00 | 44 | 1010.0 |
| 20260507054321 | 60 | 30 | 0.0 | 0.0 | 0.00 | 0.00 | 0.00 | 45 | 1009.9 |
| 20260507053821 | 60 | 31 | 0.0 | 0.0 | 0.00 | 0.00 | 0.00 | 45 | 1009.9 |
| 20260507053546 | 61 | 30 | 0.0 | 0.0 | 0.00 | 0.00 | 0.00 | 45 | 1009.9 |
| 20260507052820 | 61 | 30 | 0.0 | 0.0 | 0.00 | 0.00 | 0.00 | 46 | 1009.9 |
| 20260507052321 | 61 | 30 | 0.0 | 0.0 | 0.00 | 0.00 | 0.00 | 44 | 1009.9 |
| 20260507051821 | 61 | 31 | 0.0 | 0.0 | 0.00 | 0.00 | 0.00 | 44 | 1009.9 |
| 20260507051320 | 62 | 31 | 0.0 | 0.0 | 0.00 | 0.00 | 0.00 | 46 | 1009.9 |
| 20260507050820 | 62 | 30 | 0.0 | 0.0 | 0.00 | 0.00 | 0.00 | 44 | 1009.9 |
| 20260507050801 | 63 | 30 | 0.0 | 0.0 | 0.00 | 0.00 | 0.00 | 40 | 1009.8 |
| 20260507045820 | 64 | 30 | 0.0 | 0.0 | 0.00 | 0.00 | 0.00 | 38 | 1009.8 |
| 20260507045320 | 65 | 31 | 0.0 | 0.0 | 0.00 | 0.00 | 0.00 | 40 | 1009.8 |
| 20260507045043 | 65 | 52 | 0.0 | 0.0 | 0.00 | 0.00 | 0.00 | 37 | 1009.8 |
| 20260507044320 | 65 | 52 | 0.0 | 1.0 | 0.00 | 0.00 | 0.00 | 36 | 1009.8 |
| 20260507043819 | 64 | 54 | 0.0 | 1.0 | 0.00 | 0.00 | 0.00 | 38 | 1009.7 |
| 20260507043319 | 64 | 63 | 0.0 | 0.0 | 0.00 | 0.00 | 0.00 | 41 | 1009.8 |
| 20260507042819 | 64 | 62 | 0.0 | 0.0 | 0.00 | 0.00 | 0.00 | 39 | 1009.8 |
| 20260507042545 | 65 | 62 | 0.0 | 0.0 | 0.00 | 0.00 | 0.00 | 38 | 1009.8 |
| 20260507042039 | 65 | 62 | 0.0 | 0.0 | 0.00 | 0.00 | 0.00 | 37 | 1009.6 |
| 20260507041537 | 65 | 62 | 0.0 | 0.0 | 0.00 | 0.00 | 0.00 | 38 | 1009.7 |
| 20260507040820 | 65 | 62 | 0.0 | 0.0 | 0.00 | 0.00 | 0.00 | 39 | 1009.6 |
| 20260507040319 | 65 | 62 | 0.0 | 0.0 | 0.00 | 0.00 | 0.00 | 40 | 1009.6 |